sat.trackr.live / text

‹ back to catalog

STARLINK-36968

NORAD 67995 · 2026-039K

PAYLOAD ACTIVE UNKNOWN

§ Identity

Operator
Country
US
Launch date
2026-02-27
Launch site
AFETR
Launch vehicle
Mass (kg)
RCS (m²)

Purposes: comms

External: N2YO · Heavens-Above · Gunter

§ Orbital elements

Epoch: 2026-09-20T01:35:52.958688Z

Period
94.27 min
Inclination
43.0024°
Eccentricity
0.0001181
Mean motion
15.27584825 rev/d
Perigee alt
482.2 km
Apogee alt
483.8 km
Semi-major
6,861.2 km
B*
3.1030e-4
RAAN
30.9700°
Arg perigee
278.5667°
Mean anomaly
81.5051°
Rev number
3,143

§ Raw data

STARLINK-369681 67995U 26039K   26263.06658517  .00008287  00000+0  31030-3 0  99972 67995  43.0024  30.9700 0001181 278.5667  81.5051 15.27584825 31430

JSON: /api/v1/satellites/67995 · /tle

For live sub-satellite position, see the globe view (requires WebGL).

§ Visibility from observer

Set your observer location to see the next 7 days of passes ≥ 10°. The values pass through the URL so the page stays shareable.

No JS? Fill the form by hand. The geolocation button needs JavaScript.